METEOR 2-5 DEB, 35255

Orbit data source: Space-Track

METEOR 2-5 DEB, 35255 is space debris in LEO originally from a launch on Wed, 31 Oct 1979 UTC launched from the Plesetsk Missile And Space Complex (PKMTR). Debris objects in space refer to the collection of defunct objects orbiting the Earth. Examples of debris include non-operational satellites, rocket bodies, and fragments generated from explosions, collisions, or faulty payload assembly.

Loading next visibility...
Identifier
35255, 1979-095W
Orbit
LEO
Country
Flag of CISCIS
Related business
Manufacturer
Unknown
Mission
Spacecraft
Bus & Motor
Unknown
Mass
Unknown
Launch date (UTC)
1979-10-31 (46 years ago)
Launch vehicle
Unknown
Launch site
Plesetsk Missile And Space Complex (PKMTR)
Object type
Payload
Rocket body
Debris
Shape & HBR
Unknown shape, 0.1 m
Radar Cross Section
Small (<0.1 m²)

Expand to show TLE details & history
Last TLE update: 1 week ago

TLE from 1 week ago
0 METEOR 2-5 DEB
1 35255U 79095W   25346.20372176  .00011725  00000-0  34116-2 0  9991
2 35255  81.2006 297.0360 0009802 199.2635 160.8185 14.44149784647484
Epoch: 2025-12-12T04:53Z
TLE epoch observation values (Epoch: 2025-12-12T04:53:21.560Z)
Latitude
-0.00004°
Longitude
142.54745°
Altitude
754.361 km
Speed
7.474 km/s
True Right ascension
19h 48m 08s
True Declination
0° 00' 00"
Sunlit
Object was in daylight at epoch
Visualization orbit readout
Latitude
Unknown
Longitude
Unknown
Altitude
Unknown
Speed
Unknown
Apparent Right ascension
Unknown
Apparent Declination
Unknown
Sunlit
N/A
Visualization observer readout
Local Sidereal Time
01:12:17
Azimuth
Unknown
Elevation
Unknown
Doppler factor
Unknown
Orbital elements
Apogee altitude
748.93 km
Perigee altitude
734.972 km
Semi-major axis
7,120.088 km
Eccentricity
0.00098
Inclination
81.2006°
RAAN
297.036°
Arg. of periapsis
199.2635°
True anomaly
160.85536°
Mean anomaly
160.8185°
Eccentric anomaly
160.83694°
Mean motion
3.61256 °/min
Orbital period
99.65 mins
BSTAR
0.0034116
Loading maneuver chart data...
Computing Atmospheric mass density...
Loading historical data...
Loading historical data...
Loading historical data...
Loading historical data...
Loading historical data...
Loading historical data...
Loading historical data...

Documentation

Showing up to 5 results
|